FENGYUN 1C DEB

基本信息
目录编号:
31996
目录名称:
FENGYUN 1C DEB
国际标识:
1999-025CPZ
轨道中心:
EARTH
物体状态:
在轨
发射日期:
1999-05-10 UTC
轨道信息
数据来源: 国际轨道数据
星历时间: 2026-09-09T08:42:32+0800
半长轴: 7414.401km
偏心率: 0.0291538
轨道倾角: 99.305°
近地点辐角: 149.934°
升交点赤经: 176.731°
平近点角: 211.890°
近地点: 820.106km
远地点: 1252.422km
周期: 105.895分钟
每日圈数: 13.598428
详细信息
发射场:
TSC
轨道高度:
LEO
数据来源:
AOE Integration Group
参考系:
TEME
时间系统:
UTC
历元类型:
SGP4
2D轨道图
3D轨道图
轨道高度分析图
轨道倾角分析图
轨道综合分析图
查看轨道综合分析图